Vorticity
9 12 13 8 20 13 5 4 6 1 7 12 10 12 18 9 7 8 9 7 8 7 10 5 20 20 4 -0 17 14 2 1 -3 -8 3 1 8 14 10 6 6 11 1
9 16 13 19 19 9 7 7 7 1 8 8 8 20 12 8 8 8 6 11 14 18 17 33 2 5 1 6 12 17 5 0 -8 -5 8 6 13 13 17 20 15 19 4
14 17 15 9 14 8 9 8 3 2 11 7 12 16 10 7 9 7 10 24 26 18 28 11 -7 31 19 7 12 14 11 21 5 -1 -2 20 0 9 7 9 4 9 9
20 16 12 4 12 8 9 10 4 5 9 2 17 12 6 9 9 5 6 29 14 13 17 15 -1 18 3 -10 17 14 10 8 8 10 16 24 6 12 8 6 8 6 4
17 9 9 -2 15 14 8 7 1 6 6 7 17 10 6 7 9 7 9 11 21 18 17 19 7 15 12 4 20 5 17 6 11 8 14 10 10 6 8 7 10 9 6
9 5 6 4 15 12 4 7 1 4 6 8 14 9 7 8 10 11 9 9 36 22 25 23 42 -7 10 7 6 9 21 22 8 2 -4 1 2 1 -4 -1 1 10 6
6 12 9 13 29 4 6 11 3 6 5 7 11 9 8 8 10 8 5 3 8 18 7 27 19 14 11 9 1 17 -10 14 3 3 1 -3 -6 2 7 12 10 6 7
-1 6 25 15 5 8 11 9 5 5 3 13 11 9 8 6 9 6 1 1 11 6 19 25 8 6 24 1 12 13 9 -2 4 2 8 14 1 8 4 5 3 3 4
4 33 16 6 6 3 6 8 6 4 2 10 16 9 5 6 8 6 3 3 1 16 8 20 20 0 17 10 15 22 6 -6 6 1 17 4 6 7 12 11 7 11 15
11 16 9 7 8 10 -0 12 1 5 4 8 18 9 5 5 6 6 4 2 2 12 8 16 23 8 6 3 2 10 11 1 7 11 5 10 4 -3 4 11 11 10 12
13 7 7 3 9 5 15 4 -1 6 5 8 5 16 10 7 6 6 6 5 4 5 14 4 17 16 12 20 12 11 25 20 12 8 8 8 10 6 13 17 13 17 10
9 8 8 6 7 -11 19 1 1 3 6 8 2 8 14 10 6 6 6 5 4 3 8 12 4 6 16 14 15 11 11 16 17 23 18 24 20 18 16 14 6 6 7
13 9 11 3 4 7 25 -0 2 4 7 8 1 5 3 9 11 7 7 7 6 4 5 7 13 10 7 4 4 6 4 4 4 4 3 4 3 4 4 3 3 2 4
10 13 9 4 13 3 49 14 2 2 0 9 8 2 6 6 7 8 8 6 5 6 5 5 4 7 10 10 8 6 5 6 6 6 6 7 6 6 6 6 6 6 5
11 12 8 9 -0 4 5 2 4 1 -0 -5 -3 6 -0 7 8 6 6 8 7 6 6 6 5 5 2 3 3 2 3 4 4 4 4 5 5 4 3 3 3 3 2
11 11 8 -0 15 3 42 -1 7 2 4 6 2 5 2 -3 6 9 6 6 6 12 9 13 9 7 7 6 5 6 7 7 5 6 6 6 5 3 7 11 11 11 6
18 9 8 14 13 3 42 8 2 2 3 3 6 5 7 -2 5 12 3 8 2 7 8 2 7 9 8 7 7 7 6 6 7 7 7 8 7 6 6 6 5 5 4
55 13 9 10 3 13 6 13 10 -2 5 0 4 2 3 -0 7 -9 30 9 7 6 4 6 6 5 5 4 3 4 5 6 7 8 8 9 8 8 7 7 6 5 3
18 38 29 -4 14 7 6 29 10 25 -4 -2 0 3 3 16 3 10 -14 26 13 6 8 7 3 4 6 2 -1 -1 0 2 4 5 5 5 4 3 1 4 5 5 6
-2 26 3 69 7 10 8 8 0 -4 39 -2 22 9 15 3 5 2 -16 21 3 9 16 0 -2 2 -3 -1 5 8 10 9 0 -2 -1 0 4 5 3 3 6 5 5
5 7 27 16 37 31 41 7 11 -2 -5 8 6 1 5 8 7 8 2 33 -7 2 -0 7 9 6 2 -0 -10 -6 -5 -1 4 3 4 2 8 6 5 4 6 7 8
16 8 4 16 17 6 14 33 14 9 21 -2 -6 -1 -8 -8 -2 -8 -14 -7 70 -23 -9 6 0 5 3 9 -6 4 10 6 3 7 12 9 8 9 9 9 8 7 5
7 10 16 16 7 9 4 -1 8 15 3 3 16 41 68 53 25 42 26 31 9 -28 4 18 26 10 -13 13 17 19 15 17 19 16 15 11 8 10 11 9 5 5 6
6 5 17 16 18 18 11 8 5 6 9 10 9 7 10 14 15 29 28 29 33 31 38 48 42 31 28 19 11 3 -2 -4 -3 2 3 2 4 7 7 9 11 11 12
11 10 1 4 11 4 13 18 16 12 12 13 17 18 15 17 24 22 21 13 14 14 10 6 4 4 3 4 7 9 8 9 10 13 14 17 17 15 13 11 9 8 9
11 12 -6 0 -0 5 1 11 11 10 13 12 13 11 5 3 5 2 2 3 3 3 3 3 6 4 5 9 9 8 7 6 6 8 8 9 8 9 9 8 7 8 8
Height
5687 5688 5689 5689 5695 5699 5703 5707 5710 5711 5711 5712 5712 5713 5712 5714 5714 5715 5715 5715 5715 5715 5715 5715 5718 5720 5724 5728 5731 5734 5737 5742 5748 5752 5757 5760 5763 5765 5767 5769 5773 5775 5778
5677 5679 5681 5684 5689 5693 5697 5701 5704 5705 5706 5707 5707 5708 5709 5709 5710 5710 5709 5709 5707 5706 5707 5709 5711 5715 5718 5722 5725 5730 5734 5737 5743 5748 5751 5755 5758 5760 5761 5764 5766 5769 5773
5669 5671 5675 5677 5683 5687 5692 5695 5698 5700 5701 5702 5702 5704 5706 5706 5706 5705 5704 5702 5701 5700 5700 5700 5705 5708 5713 5717 5721 5725 5729 5733 5738 5743 5746 5749 5753 5753 5757 5759 5762 5765 5767
5662 5666 5668 5672 5678 5681 5685 5689 5693 5695 5697 5696 5699 5701 5702 5703 5702 5701 5700 5697 5696 5696 5695 5696 5699 5702 5708 5712 5717 5720 5725 5728 5734 5737 5740 5743 5746 5750 5753 5755 5758 5761 5763
5656 5660 5663 5666 5671 5674 5679 5684 5687 5690 5692 5692 5696 5698 5698 5700 5699 5698 5697 5694 5691 5690 5689 5690 5694 5698 5704 5709 5712 5717 5721 5725 5729 5733 5736 5739 5743 5746 5748 5750 5753 5755 5757
5649 5652 5656 5660 5663 5667 5673 5678 5682 5685 5687 5689 5692 5694 5695 5697 5696 5695 5694 5692 5687 5686 5684 5685 5686 5693 5699 5703 5709 5712 5717 5721 5725 5729 5733 5736 5739 5741 5744 5745 5748 5749 5751
5641 5645 5649 5653 5657 5662 5669 5672 5676 5681 5683 5685 5687 5691 5692 5693 5694 5693 5692 5690 5687 5684 5682 5683 5686 5690 5695 5699 5704 5709 5713 5717 5721 5725 5728 5731 5734 5737 5739 5739 5740 5742 5743
5631 5636 5642 5646 5651 5657 5663 5667 5671 5676 5678 5681 5684 5687 5688 5690 5691 5690 5690 5689 5686 5685 5683 5682 5685 5688 5691 5697 5701 5706 5709 5714 5717 5720 5724 5727 5729 5731 5732 5734 5734 5736 5737
5628 5633 5633 5641 5647 5652 5658 5662 5667 5672 5674 5677 5680 5683 5684 5686 5688 5688 5688 5688 5686 5684 5683 5682 5683 5687 5691 5694 5698 5703 5707 5710 5713 5716 5719 5721 5723 5725 5726 5727 5728 5728 5730
5622 5626 5629 5636 5642 5648 5653 5657 5662 5667 5670 5673 5676 5677 5680 5682 5683 5684 5684 5685 5684 5683 5681 5680 5680 5684 5688 5692 5695 5699 5702 5705 5709 5711 5714 5716 5718 5719 5720 5720 5721 5721 5721
5616 5619 5623 5629 5637 5644 5648 5652 5657 5662 5666 5668 5671 5673 5676 5678 5679 5680 5680 5681 5682 5681 5680 5680 5680 5682 5685 5688 5692 5695 5697 5700 5703 5706 5708 5710 5711 5713 5713 5714 5714 5715 5714
5610 5614 5620 5625 5633 5638 5642 5647 5651 5656 5661 5664 5667 5669 5671 5673 5675 5676 5677 5677 5678 5679 5679 5679 5679 5681 5683 5686 5688 5691 5694 5696 5698 5700 5702 5703 5704 5706 5706 5706 5707 5708 5708
5604 5609 5616 5620 5627 5633 5637 5640 5645 5649 5655 5659 5662 5664 5666 5668 5670 5672 5672 5674 5675 5676 5677 5678 5680 5681 5682 5684 5687 5688 5691 5693 5694 5695 5696 5697 5698 5699 5699 5700 5701 5702 5702
5598 5603 5610 5615 5621 5626 5628 5633 5640 5645 5649 5654 5658 5659 5661 5663 5666 5667 5669 5670 5671 5672 5673 5674 5676 5677 5680 5682 5683 5684 5685 5687 5688 5689 5690 5691 5692 5693 5693 5693 5694 5694 5694
5591 5598 5604 5609 5614 5619 5622 5627 5633 5638 5642 5648 5651 5653 5656 5658 5660 5662 5663 5664 5666 5667 5668 5669 5672 5674 5675 5676 5677 5679 5681 5682 5682 5683 5684 5685 5686 5686 5686 5687 5688 5686 5684
5586 5591 5598 5603 5607 5611 5616 5620 5626 5631 5635 5640 5642 5646 5650 5653 5654 5656 5657 5658 5660 5661 5662 5663 5666 5668 5669 5670 5671 5672 5673 5674 5675 5677 5678 5678 5678 5678 5678 5677 5677 5675 5672
5581 5584 5591 5596 5600 5604 5609 5613 5618 5623 5627 5631 5633 5637 5642 5645 5648 5649 5650 5652 5654 5655 5655 5656 5658 5661 5663 5664 5664 5665 5665 5666 5667 5668 5668 5667 5668 5668 5668 5667 5665 5664 5662
5575 5579 5583 5588 5593 5597 5602 5607 5611 5615 5619 5622 5625 5629 5633 5637 5639 5641 5642 5643 5645 5647 5649 5650 5651 5653 5656 5656 5656 5657 5657 5658 5658 5658 5659 5659 5658 5658 5657 5657 5655 5653 5652
5569 5569 5575 5580 5586 5590 5594 5598 5604 5608 5611 5615 5618 5621 5624 5626 5628 5631 5633 5635 5635 5638 5640 5642 5642 5644 5646 5647 5648 5649 5650 5650 5649 5649 5649 5649 5648 5648 5647 5645 5643 5642 5640
5564 5566 5566 5572 5576 5583 5586 5591 5595 5598 5602 5606 5611 5609 5615 5619 5620 5622 5624 5625 5626 5628 5630 5633 5634 5634 5635 5637 5638 5638 5639 5639 5639 5638 5637 5636 5636 5635 5633 5631 5629 5627 5625
5559 5561 5562 5561 5561 5574 5570 5577 5583 5589 5592 5596 5601 5603 5605 5607 5609 5611 5613 5614 5615 5618 5619 5622 5623 5624 5624 5624 5625 5626 5626 5626 5625 5624 5623 5622 5622 5620 5618 5616 5614 5612 5609
5553 5554 5555 5557 5560 5564 5567 5571 5568 5575 5581 5585 5586 5589 5591 5593 5595 5598 5599 5601 5600 5601 5606 5606 5608 5610 5610 5610 5611 5611 5611 5610 5610 5609 5608 5607 5606 5604 5602 5600 5598 5595 5592
5548 5550 5552 5554 5556 5558 5560 5563 5565 5568 5570 5573 5574 5573 5577 5580 5581 5584 5584 5586 5588 5587 5589 5590 5591 5593 5593 5595 5596 5596 5595 5596 5595 5595 5594 5593 5591 5589 5586 5584 5581 5577 5574
5543 5545 5548 5550 5553 5554 5556 5558 5560 5562 5564 5565 5566 5567 5568 5569 5571 5573 5574 5574 5576 5578 5579 5580 5580 5581 5581 5581 5582 5583 5582 5582 5582 5581 5579 5578 5576 5574 5570 5567 5564 5560 5556
5541 5543 5545 5547 5549 5550 5552 5552 5554 5555 5556 5558 5559 5560 5561 5562 5563 5563 5564 5566 5568 5569 5570 5570 5571 5572 5572 5572 5572 5571 5570 5568 5567 5565 5563 5562 5559 5556 5553 5550 5547 5543 5540
5538 5539 5541 5541 5542 5544 5545 5547 5548 5549 5550 5550 5551 5552 5553 5554 5554 5556 5557 5559 5560 5560 5560 5560 5560 5560 5560 5559 5558 5556 5554 5552 5550 5549 5546 5544 5542 5539 5536 5533 5529 5525 5521